Time,TemperatureF,DewpointF,PressureIn,WindDirection,WindDirectionDegrees,WindSpeedMPH,WindSpeedGustMPH,Humidity,HourlyPrecipIn,Conditions,Clouds,dailyrainin,SolarRadiationWatts/m^2,SoftwareType,DateUTC
2013-02-15 00:00:00,38.3,33.9,30.11,NNW,339,0.0,3.0,84,0.00,RA,,0.00,0.0,WeatherDisplay:10.37,2013-02-15 05:00:00,
2013-02-15 00:05:00,38.3,33.9,30.11,NNW,339,2.0,2.0,84,0.00,RA,,0.00,0.0,WeatherDisplay:10.37,2013-02-15 05:05:00,
2013-02-15 00:10:00,38.4,34.0,30.11,NNW,339,0.0,0.0,84,0.00,CLR,,0.00,0.0,WeatherDisplay:10.37,2013-02-15 05:10:00,
2013-02-15 00:15:00,38.5,34.1,30.11,NNW,339,0.0,0.0,84,0.00,CLR,,0.00,0.0,WeatherDisplay:10.37,2013-02-15 05:15:00,
2013-02-15 00:20:00,38.5,34.1,30.11,NNW,339,0.0,0.0,84,0.00,CLR,,0.00,0.0,WeatherDisplay:10.37,2013-02-15 05:20:00,
2013-02-15 00:25:00,38.5,33.8,30.11,NNW,339,0.0,0.0,83,0.00,CLR,,0.00,0.0,WeatherDisplay:10.37,2013-02-15 05:25:00,
2013-02-15 00:30:00,38.4,33.7,30.11,NNW,339,0.0,0.0,83,0.00,CLR,,0.00,0.0,WeatherDisplay:10.37,2013-02-15 05:30:00,
2013-02-15 00:35:00,38.3,33.6,30.11,NNW,339,3.5,3.5,83,0.00,CLR,,0.00,0.0,WeatherDisplay:10.37,2013-02-15 05:35:00,
2013-02-15 00:40:00,38.3,33.9,30.11,NNW,339,5.0,5.0,84,0.00,CLR,,0.00,0.0,WeatherDisplay:10.37,2013-02-15 05:40:00,
2013-02-15 00:45:00,38.3,33.9,30.11,NNW,339,4.6,4.6,84,0.00,CLR,,0.00,0.0,WeatherDisplay:10.37,2013-02-15 05:45:00,
2013-02-15 00:50:00,38.4,34.0,30.11,NNW,339,4.6,4.6,84,0.00,CLR,,0.00,0.0,WeatherDisplay:10.37,2013-02-15 05:50:00,
2013-02-15 00:55:00,38.4,34.0,30.11,NNW,339,4.6,4.6,84,0.00,CLR,,0.00,0.0,WeatherDisplay:10.37,2013-02-15 05:55:00,
2013-02-15 01:00:00,38.6,33.9,30.11,NNW,339,4.0,4.0,83,0.00,CLR,,0.00,0.0,WeatherDisplay:10.37,2013-02-15 06:00:00,
2013-02-15 01:05:00,38.7,34.0,30.11,NNW,339,0.0,0.0,83,0.00,CLR,,0.00,0.0,WeatherDisplay:10.37,2013-02-15 06:05:00,
2013-02-15 01:10:00,38.8,34.1,30.11,NNW,339,3.5,3.5,83,0.00,CLR,,0.00,0.0,WeatherDisplay:10.37,2013-02-15 06:10:00,
2013-02-15 01:15:00,39.1,34.1,30.11,NNW,339,3.5,3.5,82,0.00,CLR,,0.00,0.0,WeatherDisplay:10.37,2013-02-15 06:15:00,
2013-02-15 01:20:00,39.0,34.0,30.11,NNW,339,3.5,3.5,82,0.00,CLR,,0.00,0.0,WeatherDisplay:10.37,2013-02-15 06:20:00,
2013-02-15 01:25:00,39.1,34.1,30.11,NNW,339,2.3,2.3,82,0.00,CLR,,0.00,0.0,WeatherDisplay:10.37,2013-02-15 06:25:00,
2013-02-15 01:30:00,38.7,33.4,30.11,NNW,339,0.0,0.0,81,0.00,CLR,,0.00,0.0,WeatherDisplay:10.37,2013-02-15 06:30:00,
2013-02-15 01:35:00,38.1,33.1,30.11,NNW,339,0.0,0.0,82,0.00,CLR,,0.00,0.0,WeatherDisplay:10.37,2013-02-15 06:35:00,
2013-02-15 01:40:00,37.1,32.4,30.11,NNW,339,0.0,0.0,83,0.00,CLR,,0.00,0.0,WeatherDisplay:10.37,2013-02-15 06:40:00,
2013-02-15 01:45:00,36.4,32.6,30.11,NNW,339,0.0,0.0,86,0.00,CLR,,0.00,0.0,WeatherDisplay:10.37,2013-02-15 06:45:00,
2013-02-15 01:50:00,36.0,32.5,30.11,NNW,339,0.0,0.0,87,0.00,CLR,,0.00,0.0,WeatherDisplay:10.37,2013-02-15 06:50:00,
2013-02-15 01:55:00,35.7,32.5,30.11,NNW,339,0.0,0.0,88,0.00,CLR,,0.00,0.0,WeatherDisplay:10.37,2013-02-15 06:55:00,
2013-02-15 02:00:00,35.6,32.7,30.11,NNW,339,0.0,0.0,89,0.00,CLR,,0.00,0.0,WeatherDisplay:10.37,2013-02-15 07:00:00,
2013-02-15 02:05:00,35.7,32.8,30.11,NNW,339,0.0,0.0,89,0.00,CLR,,0.00,0.0,WeatherDisplay:10.37,2013-02-15 07:05:00,
2013-02-15 02:10:00,35.7,33.1,30.10,NNW,339,0.0,0.0,90,0.00,CLR,,0.00,0.0,WeatherDisplay:10.37,2013-02-15 07:10:00,
2013-02-15 02:15:00,35.8,33.2,30.10,NNW,339,0.0,0.0,90,0.00,CLR,,0.00,0.0,WeatherDisplay:10.37,2013-02-15 07:15:00,
2013-02-15 02:20:00,35.9,33.3,30.10,NNW,339,0.0,0.0,90,0.00,CLR,,0.00,0.0,WeatherDisplay:10.37,2013-02-15 07:20:00,
2013-02-15 02:25:00,36.4,33.5,30.10,NNW,339,0.0,0.0,89,0.00,CLR,,0.00,0.0,WeatherDisplay:10.37,2013-02-15 07:25:00,
2013-02-15 02:30:00,36.4,33.2,30.10,NNW,339,0.0,0.0,88,0.00,CLR,,0.00,0.0,WeatherDisplay:10.37,2013-02-15 07:30:00,
2013-02-15 02:35:00,36.7,33.2,30.10,NNW,339,0.0,0.0,87,0.00,CLR,,0.00,0.0,WeatherDisplay:10.37,2013-02-15 07:35:00,
2013-02-15 02:40:00,36.8,33.3,30.10,NNW,339,0.0,0.0,87,0.00,CLR,,0.00,0.0,WeatherDisplay:10.37,2013-02-15 07:40:00,
2013-02-15 02:45:00,36.7,32.9,30.10,NNW,339,0.0,0.0,86,0.00,CLR,,0.00,0.0,WeatherDisplay:10.37,2013-02-15 07:45:00,
2013-02-15 02:50:00,36.7,33.2,30.11,NNW,339,0.0,0.0,87,0.00,CLR,,0.00,0.0,WeatherDisplay:10.37,2013-02-15 07:50:00,
2013-02-15 02:55:00,36.8,33.3,30.11,NNW,339,0.0,0.0,87,0.00,CLR,,0.00,0.0,WeatherDisplay:10.37,2013-02-15 07:55:00,
2013-02-15 03:00:00,36.9,33.1,30.11,NNW,339,0.0,0.0,86,0.00,CLR,,0.00,0.0,WeatherDisplay:10.37,2013-02-15 08:00:00,
2013-02-15 03:05:00,37.0,32.9,30.11,NNW,339,0.0,0.0,85,0.00,CLR,,0.00,0.0,WeatherDisplay:10.37,2013-02-15 08:05:00,
2013-02-15 03:10:00,36.8,32.4,30.11,NNW,339,0.0,0.0,84,0.00,CLR,,0.00,0.0,WeatherDisplay:10.37,2013-02-15 08:10:00,
2013-02-15 03:15:00,36.3,32.2,30.11,NNW,339,0.0,0.0,85,0.00,CLR,,0.00,0.0,WeatherDisplay:10.37,2013-02-15 08:15:00,
2013-02-15 03:20:00,35.7,31.9,30.11,NNW,339,0.0,0.0,86,0.00,CLR,,0.00,0.0,WeatherDisplay:10.37,2013-02-15 08:20:00,
2013-02-15 03:25:00,35.3,32.4,30.11,NNW,339,0.0,0.0,89,0.00,CLR,,0.00,0.0,WeatherDisplay:10.37,2013-02-15 08:25:00,
2013-02-15 03:30:00,35.5,32.6,30.11,NNW,339,0.0,0.0,89,0.00,CLR,,0.00,0.0,WeatherDisplay:10.37,2013-02-15 08:30:00,
2013-02-15 03:35:00,34.9,31.7,30.11,NNW,339,0.0,0.0,88,0.00,CLR,,0.00,0.0,WeatherDisplay:10.37,2013-02-15 08:35:00,
2013-02-15 03:40:00,34.8,32.2,30.11,NNW,339,0.0,0.0,90,0.00,CLR,,0.00,0.0,WeatherDisplay:10.37,2013-02-15 08:40:00,
2013-02-15 03:45:00,34.9,32.3,30.11,NNW,339,0.0,0.0,90,0.00,CLR,,0.00,0.0,WeatherDisplay:10.37,2013-02-15 08:45:00,
2013-02-15 03:50:00,35.0,32.6,30.11,NNW,339,0.0,0.0,91,0.00,CLR,,0.00,0.0,WeatherDisplay:10.37,2013-02-15 08:50:00,
2013-02-15 03:55:00,35.2,32.6,30.11,NNW,339,0.0,0.0,90,0.00,CLR,,0.00,0.0,WeatherDisplay:10.37,2013-02-15 08:55:00,
2013-02-15 04:00:00,35.3,32.7,30.11,NNW,339,0.0,0.0,90,0.00,CLR,,0.00,0.0,WeatherDisplay:10.37,2013-02-15 09:00:00,
2013-02-15 04:05:00,35.3,32.4,30.11,NNW,339,0.0,0.0,89,0.00,CLR,,0.00,0.0,WeatherDisplay:10.37,2013-02-15 09:05:00,
2013-02-15 04:10:00,34.9,31.7,30.11,NNW,339,0.0,0.0,88,0.00,CLR,,0.00,0.0,WeatherDisplay:10.37,2013-02-15 09:10:00,
2013-02-15 04:15:00,34.9,32.3,30.11,NNW,339,0.0,0.0,90,0.00,CLR,,0.00,0.0,WeatherDisplay:10.37,2013-02-15 09:15:00,
2013-02-15 04:20:00,34.7,31.8,30.11,NNW,339,0.0,0.0,89,0.00,CLR,,0.00,0.0,WeatherDisplay:10.37,2013-02-15 09:20:00,
2013-02-15 04:25:00,34.6,32.0,30.11,NNW,339,0.0,0.0,90,0.00,CLR,,0.00,0.0,WeatherDisplay:10.37,2013-02-15 09:25:00,
2013-02-15 04:30:00,34.5,31.9,30.11,NNW,339,0.0,0.0,90,0.00,CLR,,0.00,0.0,WeatherDisplay:10.37,2013-02-15 09:30:00,
2013-02-15 04:35:00,34.7,32.3,30.11,NNW,339,0.0,0.0,91,0.00,CLR,,0.00,0.0,WeatherDisplay:10.37,2013-02-15 09:35:00,
2013-02-15 04:40:00,34.7,32.3,30.11,NNW,339,0.0,0.0,91,0.00,CLR,,0.00,0.0,WeatherDisplay:10.37,2013-02-15 09:40:00,
2013-02-15 04:45:00,34.8,32.2,30.11,NNW,339,0.0,0.0,90,0.00,CLR,,0.00,0.0,WeatherDisplay:10.37,2013-02-15 09:45:00,
2013-02-15 04:50:00,34.7,32.1,30.11,NNW,339,0.0,0.0,90,0.00,CLR,,0.00,0.0,WeatherDisplay:10.37,2013-02-15 09:50:00,
2013-02-15 04:55:00,34.4,31.8,30.11,NNW,339,0.0,0.0,90,0.00,CLR,,0.00,0.0,WeatherDisplay:10.37,2013-02-15 09:55:00,
2013-02-15 05:00:00,34.5,32.1,30.11,NNW,339,0.0,0.0,91,0.00,CLR,,0.00,0.0,WeatherDisplay:10.37,2013-02-15 10:00:00,
2013-02-15 05:05:00,34.2,31.8,30.11,NNW,339,0.0,0.0,91,0.00,CLR,,0.00,0.0,WeatherDisplay:10.37,2013-02-15 10:05:00,
2013-02-15 05:10:00,34.3,32.2,30.11,NNW,339,0.0,0.0,92,0.00,CLR,,0.00,0.0,WeatherDisplay:10.37,2013-02-15 10:10:00,
2013-02-15 05:15:00,34.7,32.9,30.11,NNW,339,0.0,0.0,93,0.00,CLR,,0.00,0.0,WeatherDisplay:10.37,2013-02-15 10:15:00,
2013-02-15 05:20:00,35.3,33.2,30.11,NNW,339,0.0,0.0,92,0.00,CLR,,0.00,0.0,WeatherDisplay:10.37,2013-02-15 10:20:00,
2013-02-15 05:25:00,35.4,33.0,30.12,NNW,339,0.0,0.0,91,0.00,CLR,,0.00,0.0,WeatherDisplay:10.37,2013-02-15 10:25:00,
2013-02-15 05:30:00,35.5,32.6,30.11,NNW,339,0.0,0.0,89,0.00,CLR,,0.00,0.0,WeatherDisplay:10.37,2013-02-15 10:30:00,
2013-02-15 05:35:00,35.3,32.4,30.12,NNW,339,0.0,0.0,89,0.00,CLR,,0.00,0.0,WeatherDisplay:10.37,2013-02-15 10:35:00,
2013-02-15 05:40:00,35.1,32.2,30.12,NNW,339,0.0,0.0,89,0.00,CLR,,0.00,0.0,WeatherDisplay:10.37,2013-02-15 10:40:00,
2013-02-15 05:45:00,34.8,31.9,30.13,NNW,339,0.0,0.0,89,0.00,CLR,,0.00,0.0,WeatherDisplay:10.37,2013-02-15 10:45:00,
2013-02-15 05:50:00,34.5,31.6,30.13,NNW,339,0.0,0.0,89,0.00,CLR,,0.00,0.0,WeatherDisplay:10.37,2013-02-15 10:50:00,
2013-02-15 05:55:00,34.1,31.5,30.13,NNW,339,0.0,0.0,90,0.00,CLR,,0.00,0.0,WeatherDisplay:10.37,2013-02-15 10:55:00,
2013-02-15 06:00:00,33.8,31.2,30.13,NNW,339,0.0,0.0,90,0.00,CLR,,0.00,0.0,WeatherDisplay:10.37,2013-02-15 11:00:00,
2013-02-15 06:05:00,33.8,31.7,30.13,NNW,339,0.0,0.0,92,0.00,CLR,,0.00,0.0,WeatherDisplay:10.37,2013-02-15 11:05:00,
2013-02-15 06:10:00,33.9,31.8,30.14,NNW,339,0.0,0.0,92,0.00,CLR,,0.00,0.0,WeatherDisplay:10.37,2013-02-15 11:10:00,
2013-02-15 06:15:00,33.7,31.6,30.14,NNW,339,0.0,0.0,92,0.00,CLR,,0.00,0.0,WeatherDisplay:10.37,2013-02-15 11:15:00,
2013-02-15 06:20:00,33.9,32.1,30.14,NNW,339,3.5,3.5,93,0.00,CLR,,0.00,0.0,WeatherDisplay:10.37,2013-02-15 11:20:00,
2013-02-15 06:25:00,34.3,32.8,30.14,NNW,339,0.0,0.0,94,0.00,CLR,,0.00,0.0,WeatherDisplay:10.37,2013-02-15 11:25:00,
2013-02-15 06:30:00,34.6,32.8,30.15,NNW,339,3.5,3.5,93,0.00,CLR,,0.00,0.0,WeatherDisplay:10.37,2013-02-15 11:30:00,
2013-02-15 06:35:00,34.6,32.5,30.15,NNW,339,0.0,0.0,92,0.00,CLR,,0.00,0.0,WeatherDisplay:10.37,2013-02-15 11:35:00,
2013-02-15 06:40:00,34.6,32.5,30.15,NNW,339,0.0,0.0,92,0.00,CLR,,0.00,0.0,WeatherDisplay:10.37,2013-02-15 11:40:00,
2013-02-15 06:45:00,34.7,32.6,30.15,NNW,339,0.0,0.0,92,0.00,CLR,,0.00,0.0,WeatherDisplay:10.37,2013-02-15 11:45:00,
2013-02-15 06:50:00,34.5,32.1,30.15,NNW,339,0.0,0.0,91,0.00,CLR,,0.00,0.0,WeatherDisplay:10.37,2013-02-15 11:50:00,
2013-02-15 06:55:00,34.3,31.9,30.15,NNW,339,0.0,0.0,91,0.00,CLR,,0.00,0.0,WeatherDisplay:10.37,2013-02-15 11:55:00,
2013-02-15 07:00:00,34.0,31.6,30.15,NNW,339,0.0,0.0,91,0.00,CLR,,0.00,0.0,WeatherDisplay:10.37,2013-02-15 12:00:00,
2013-02-15 07:05:00,33.9,31.8,30.15,NNW,339,0.0,0.0,92,0.00,CLR,,0.00,0.0,WeatherDisplay:10.37,2013-02-15 12:05:00,
2013-02-15 07:10:00,33.8,31.7,30.15,NNW,339,0.0,0.0,92,0.00,CLR,,0.00,0.0,WeatherDisplay:10.37,2013-02-15 12:10:00,
2013-02-15 07:15:00,33.8,32.0,30.15,NNW,339,0.0,0.0,93,0.00,CLR,,0.00,0.0,WeatherDisplay:10.37,2013-02-15 12:15:00,
2013-02-15 07:20:00,33.9,32.1,30.15,NNW,339,0.0,0.0,93,0.00,CLR,,0.00,0.0,WeatherDisplay:10.37,2013-02-15 12:20:00,
2013-02-15 07:25:00,33.8,31.7,30.15,NNW,339,0.0,0.0,92,0.00,CLR,,0.00,5.0,WeatherDisplay:10.37,2013-02-15 12:25:00,
2013-02-15 07:30:00,33.8,32.0,30.15,NNW,339,0.0,0.0,93,0.00,CLR,,0.00,7.0,WeatherDisplay:10.37,2013-02-15 12:30:00,
2013-02-15 07:35:00,34.1,32.3,30.15,NNW,339,0.0,0.0,93,0.00,CLR,,0.00,9.0,WeatherDisplay:10.37,2013-02-15 12:35:00,
2013-02-15 07:40:00,33.9,31.8,30.15,NNW,339,0.0,0.0,92,0.00,CLR,,0.00,11.0,WeatherDisplay:10.37,2013-02-15 12:40:00,
2013-02-15 07:45:00,33.8,31.7,30.15,NNW,339,0.0,0.0,92,0.00,CLR,,0.00,12.0,WeatherDisplay:10.37,2013-02-15 12:45:00,
2013-02-15 07:50:00,33.8,32.0,30.15,NNW,339,0.0,0.0,93,0.00,CLR,,0.00,12.0,WeatherDisplay:10.37,2013-02-15 12:50:00,
2013-02-15 07:55:00,34.1,32.3,30.15,NNW,339,0.0,0.0,93,0.00,CLR,,0.00,14.0,WeatherDisplay:10.37,2013-02-15 12:55:00,
2013-02-15 08:00:00,34.3,32.8,30.16,NNW,339,0.0,0.0,94,0.00,CLR,,0.00,16.0,WeatherDisplay:10.37,2013-02-15 13:00:00,
2013-02-15 08:05:00,34.5,33.0,30.15,NNW,339,0.0,0.0,94,0.00,CLR,,0.00,16.0,WeatherDisplay:10.37,2013-02-15 13:05:00,
2013-02-15 08:10:00,34.7,32.9,30.16,NNW,339,0.0,0.0,93,0.00,CLR,,0.00,18.0,WeatherDisplay:10.37,2013-02-15 13:10:00,
2013-02-15 08:15:00,34.8,33.0,30.16,NNW,339,0.0,0.0,93,0.00,CLR,,0.00,19.0,WeatherDisplay:10.37,2013-02-15 13:15:00,
2013-02-15 08:20:00,35.0,33.2,30.16,NNW,339,0.0,0.0,93,0.00,CLR,,0.00,19.0,WeatherDisplay:10.37,2013-02-15 13:20:00,
2013-02-15 08:25:00,35.4,33.8,30.16,NNW,339,0.0,0.0,94,0.00,CLR,,0.00,19.0,WeatherDisplay:10.37,2013-02-15 13:25:00,
2013-02-15 08:30:00,35.7,34.1,30.16,NNW,339,0.0,0.0,94,0.00,CLR,,0.00,21.0,WeatherDisplay:10.37,2013-02-15 13:30:00,
2013-02-15 08:35:00,36.1,34.5,30.16,NNW,339,0.0,0.0,94,0.00,CLR,,0.00,21.0,WeatherDisplay:10.37,2013-02-15 13:35:00,
2013-02-15 08:40:00,36.5,34.9,30.16,NNW,339,0.0,0.0,94,0.00,CLR,,0.00,21.0,WeatherDisplay:10.37,2013-02-15 13:40:00,
2013-02-15 08:45:00,36.8,35.0,30.16,NNW,339,0.0,0.0,93,0.00,CLR,,0.00,23.0,WeatherDisplay:10.37,2013-02-15 13:45:00,
2013-02-15 08:50:00,37.1,35.3,30.15,NNW,339,0.0,0.0,93,0.00,CLR,,0.00,23.0,WeatherDisplay:10.37,2013-02-15 13:50:00,
2013-02-15 08:55:00,37.7,35.9,30.16,NNW,339,0.0,0.0,93,0.00,CLR,,0.00,23.0,WeatherDisplay:10.37,2013-02-15 13:55:00,
2013-02-15 09:00:00,38.0,35.9,30.16,NNW,339,0.0,0.0,92,0.00,CLR,,0.00,25.0,WeatherDisplay:10.37,2013-02-15 14:00:00,
2013-02-15 09:05:00,38.7,35.7,30.16,NNW,339,0.0,0.0,89,0.00,OVC,,0.00,25.0,WeatherDisplay:10.37,2013-02-15 14:05:00,
2013-02-15 09:10:00,39.3,36.0,30.15,NNW,339,0.0,0.0,88,0.00,OVC,,0.00,25.0,WeatherDisplay:10.37,2013-02-15 14:10:00,
2013-02-15 09:15:00,40.1,36.2,30.15,NNW,339,0.0,0.0,86,0.00,OVC,,0.00,25.0,WeatherDisplay:10.37,2013-02-15 14:15:00,
2013-02-15 09:20:00,40.8,36.3,30.16,NNW,339,0.0,0.0,84,0.00,OVC,,0.00,26.0,WeatherDisplay:10.37,2013-02-15 14:20:00,
2013-02-15 09:25:00,41.7,36.9,30.15,NNW,339,0.0,0.0,83,0.00,OVC,,0.00,26.0,WeatherDisplay:10.37,2013-02-15 14:25:00,
2013-02-15 09:30:00,42.3,37.5,30.15,NNW,339,0.0,0.0,83,0.00,OVC,,0.00,26.0,WeatherDisplay:10.37,2013-02-15 14:30:00,
2013-02-15 09:35:00,42.9,38.4,30.15,NNW,339,0.0,0.0,84,0.00,OVC,,0.00,26.0,WeatherDisplay:10.37,2013-02-15 14:35:00,
2013-02-15 09:40:00,43.5,38.1,30.15,NNW,339,3.5,3.5,81,0.00,OVC,,0.00,26.0,WeatherDisplay:10.37,2013-02-15 14:40:00,
2013-02-15 09:45:00,44.4,38.9,30.15,NNW,338,5.0,5.0,81,0.00,OVC,,0.00,28.0,WeatherDisplay:10.37,2013-02-15 14:45:00,
2013-02-15 09:50:00,45.4,39.3,30.15,NNW,333,6.0,6.0,79,0.00,OVC,,0.00,28.0,WeatherDisplay:10.37,2013-02-15 14:50:00,
2013-02-15 09:55:00,46.9,40.4,30.15,NW,322,4.6,4.6,78,0.00,OVC,,0.00,28.0,WeatherDisplay:10.37,2013-02-15 14:55:00,
2013-02-15 10:00:00,48.1,40.2,30.15,NW,321,4.6,4.6,74,0.00,OVC,,0.00,28.0,WeatherDisplay:10.37,2013-02-15 15:00:00,
2013-02-15 10:05:00,49.2,39.8,30.15,NW,321,4.6,4.6,70,0.00,OVC,,0.00,30.0,WeatherDisplay:10.37,2013-02-15 15:05:00,
2013-02-15 10:10:00,50.0,40.2,30.15,NW,313,8.1,8.1,69,0.00,OVC,,0.00,30.0,WeatherDisplay:10.37,2013-02-15 15:10:00,
2013-02-15 10:15:00,50.8,41.0,30.15,WNW,302,5.8,5.8,69,0.00,OVC,,0.00,32.0,WeatherDisplay:10.37,2013-02-15 15:15:00,
2013-02-15 10:20:00,51.2,39.8,30.15,WNW,302,6.9,6.9,65,0.00,OVC,,0.00,32.0,WeatherDisplay:10.37,2013-02-15 15:20:00,
2013-02-15 10:25:00,51.7,38.7,30.15,WNW,302,5.0,5.0,61,0.00,OVC,,0.00,33.0,WeatherDisplay:10.37,2013-02-15 15:25:00,
2013-02-15 10:30:00,52.0,40.2,30.15,WNW,302,3.5,3.8,64,0.00,OVC,,0.00,56.0,WeatherDisplay:10.37,2013-02-15 15:30:00,
2013-02-15 10:35:00,52.5,38.1,30.15,WNW,292,4.6,4.6,58,0.00,OVC,,0.00,496.0,WeatherDisplay:10.37,2013-02-15 15:35:00,
2013-02-15 10:40:00,52.8,37.5,30.15,WNW,292,4.6,4.6,56,0.00,OVC,,0.00,508.0,WeatherDisplay:10.37,2013-02-15 15:40:00,
2013-02-15 10:45:00,53.2,38.4,30.15,West,265,11.5,11.5,57,0.00,OVC,,0.00,531.0,WeatherDisplay:10.37,2013-02-15 15:45:00,
2013-02-15 10:50:00,53.3,37.5,30.14,SW,223,11.5,11.5,55,0.00,OVC,,0.00,545.0,WeatherDisplay:10.37,2013-02-15 15:50:00,
2013-02-15 10:55:00,53.3,37.1,30.14,WSW,242,12.7,12.7,54,0.00,OVC,,0.00,557.0,WeatherDisplay:10.37,2013-02-15 15:55:00,
2013-02-15 11:00:00,53.6,37.3,30.14,WSW,255,9.2,9.2,54,0.00,OVC,,0.00,568.0,WeatherDisplay:10.37,2013-02-15 16:00:00,
2013-02-15 11:05:00,54.1,37.3,30.14,WSW,248,5.0,5.0,53,0.00,OVC,,0.00,580.0,WeatherDisplay:10.37,2013-02-15 16:05:00,
2013-02-15 11:10:00,54.4,38.1,30.14,WSW,248,5.8,5.8,54,0.00,OVC,,0.00,587.0,WeatherDisplay:10.37,2013-02-15 16:10:00,
2013-02-15 11:15:00,54.4,38.6,30.14,West,276,4.6,4.6,55,0.00,OVC,,0.00,599.0,WeatherDisplay:10.37,2013-02-15 16:15:00,
2013-02-15 11:20:00,54.6,38.7,30.13,WSW,257,12.7,12.7,55,0.00,OVC,,0.00,610.0,WeatherDisplay:10.37,2013-02-15 16:20:00,
2013-02-15 11:25:00,54.7,39.8,30.14,WSW,237,7.0,7.0,57,0.00,OVC,,0.00,621.0,WeatherDisplay:10.37,2013-02-15 16:25:00,
2013-02-15 11:30:00,54.8,39.8,30.13,West,272,10.4,10.4,57,0.00,OVC,,0.00,631.0,WeatherDisplay:10.37,2013-02-15 16:30:00,
2013-02-15 11:35:00,55.0,39.6,30.13,WSW,244,10.4,10.4,56,0.00,OVC,,0.00,640.0,WeatherDisplay:10.37,2013-02-15 16:35:00,
2013-02-15 11:40:00,55.2,38.4,30.12,SW,236,9.2,9.2,53,0.00,OVC,,0.00,645.0,WeatherDisplay:10.37,2013-02-15 16:40:00,
2013-02-15 11:45:00,55.7,39.8,30.12,WSW,241,11.5,11.5,55,0.00,OVC,,0.00,650.0,WeatherDisplay:10.37,2013-02-15 16:45:00,
2013-02-15 11:50:00,55.6,37.7,30.12,WSW,252,6.9,6.9,51,0.00,OVC,,0.00,670.0,WeatherDisplay:10.37,2013-02-15 16:50:00,
2013-02-15 11:55:00,55.7,36.8,30.12,WSW,252,21.9,21.9,49,0.00,OVC,,0.00,666.0,WeatherDisplay:10.37,2013-02-15 16:55:00,
2013-02-15 12:00:00,55.9,36.5,30.12,WSW,248,12.7,12.7,48,0.00,OVC,,0.00,671.0,WeatherDisplay:10.37,2013-02-15 17:00:00,
2013-02-15 12:05:00,56.2,36.8,30.12,West,278,13.8,13.8,48,0.00,OVC,,0.00,680.0,WeatherDisplay:10.37,2013-02-15 17:05:00,
2013-02-15 12:10:00,56.4,35.9,30.12,WSW,252,12.7,12.7,46,0.00,OVC,,0.00,705.0,WeatherDisplay:10.37,2013-02-15 17:10:00,
2013-02-15 12:15:00,56.7,36.7,30.12,WNW,298,15.0,15.0,47,0.00,OVC,,0.00,687.0,WeatherDisplay:10.37,2013-02-15 17:15:00,
2013-02-15 12:20:00,56.2,34.0,30.12,West,273,19.6,19.6,43,0.00,OVC,,0.00,694.0,WeatherDisplay:10.37,2013-02-15 17:20:00,
2013-02-15 12:25:00,55.8,34.8,30.11,West,271,19.6,19.6,45,0.00,CLR,,0.00,696.0,WeatherDisplay:10.37,2013-02-15 17:25:00,
2013-02-15 12:30:00,56.0,34.4,30.11,SW,236,18.4,18.4,44,0.00,CLR,,0.00,700.0,WeatherDisplay:10.37,2013-02-15 17:30:00,
2013-02-15 12:35:00,55.9,36.5,30.11,WNW,286,18.4,18.4,48,0.00,CLR,,0.00,710.0,WeatherDisplay:10.37,2013-02-15 17:35:00,
2013-02-15 12:40:00,56.0,35.5,30.11,West,262,18.4,18.4,46,0.00,CLR,,0.00,708.0,WeatherDisplay:10.37,2013-02-15 17:40:00,
2013-02-15 12:45:00,56.0,36.6,30.11,West,266,13.0,13.0,48,0.00,CLR,,0.00,737.0,WeatherDisplay:10.37,2013-02-15 17:45:00,
2013-02-15 12:50:00,55.8,35.9,30.11,West,279,16.1,16.1,47,0.00,CLR,,0.00,751.0,WeatherDisplay:10.37,2013-02-15 17:50:00,
2013-02-15 12:55:00,56.0,38.1,30.11,WSW,247,11.0,11.0,51,0.00,CLR,,0.00,95.0,WeatherDisplay:10.37,2013-02-15 17:55:00,
2013-02-15 13:00:00,55.8,35.9,30.11,West,261,16.1,16.1,47,0.00,CLR,,0.00,105.0,WeatherDisplay:10.37,2013-02-15 18:00:00,
2013-02-15 13:05:00,55.5,35.0,30.10,WSW,240,21.9,21.9,46,0.00,CLR,,0.00,752.0,WeatherDisplay:10.37,2013-02-15 18:05:00,
2013-02-15 13:10:00,56.1,37.2,30.10,West,268,24.2,24.2,49,0.00,CLR,,0.00,729.0,WeatherDisplay:10.37,2013-02-15 18:10:00,
2013-02-15 13:15:00,56.3,36.3,30.09,WSW,248,18.4,18.4,47,0.00,CLR,,0.00,729.0,WeatherDisplay:10.37,2013-02-15 18:15:00,
2013-02-15 13:20:00,56.4,35.9,30.09,West,262,18.4,18.4,46,0.00,CLR,,0.00,710.0,WeatherDisplay:10.37,2013-02-15 18:20:00,
2013-02-15 13:25:00,56.4,35.3,30.09,SW,229,19.6,19.6,45,0.00,CLR,,0.00,698.0,WeatherDisplay:10.37,2013-02-15 18:25:00,
2013-02-15 13:30:00,56.6,36.0,30.09,West,261,19.6,19.6,46,0.00,CLR,,0.00,698.0,WeatherDisplay:10.37,2013-02-15 18:30:00,
2013-02-15 13:35:00,56.6,34.9,30.09,West,277,18.4,18.4,44,0.00,CLR,,0.00,721.0,WeatherDisplay:10.37,2013-02-15 18:35:00,
2013-02-15 13:40:00,56.4,36.4,30.09,West,261,20.7,20.7,47,0.00,CLR,,0.00,694.0,WeatherDisplay:10.37,2013-02-15 18:40:00,
2013-02-15 13:45:00,56.3,35.2,30.08,West,259,19.6,19.6,45,0.00,BKN,,0.00,86.0,WeatherDisplay:10.37,2013-02-15 18:45:00,
2013-02-15 13:50:00,56.0,36.0,30.08,WSW,257,17.3,17.3,47,0.00,CLR,,0.00,691.0,WeatherDisplay:10.37,2013-02-15 18:50:00,
2013-02-15 13:55:00,56.4,35.9,30.07,WSW,254,16.1,16.1,46,0.00,CLR,,0.00,703.0,WeatherDisplay:10.37,2013-02-15 18:55:00,
2013-02-15 14:00:00,56.5,34.8,30.07,WSW,257,19.0,19.0,44,0.00,CLR,,0.00,693.0,WeatherDisplay:10.37,2013-02-15 19:00:00,
2013-02-15 14:05:00,56.8,36.2,30.06,West,260,18.4,18.4,46,0.00,CLR,,0.00,680.0,WeatherDisplay:10.37,2013-02-15 19:05:00,
2013-02-15 14:10:00,57.1,38.1,30.06,WSW,252,19.6,19.6,49,0.00,CLR,,0.00,686.0,WeatherDisplay:10.37,2013-02-15 19:10:00,
2013-02-15 14:15:00,57.2,38.7,30.06,West,271,16.1,16.1,50,0.00,CLR,,0.00,360.0,WeatherDisplay:10.37,2013-02-15 19:15:00,
2013-02-15 14:20:00,57.2,37.7,30.06,WSW,246,23.0,23.0,48,0.00,CLR,,0.00,679.0,WeatherDisplay:10.37,2013-02-15 19:20:00,
2013-02-15 14:25:00,57.5,38.5,30.06,WSW,257,19.6,19.6,49,0.00,CLR,,0.00,664.0,WeatherDisplay:10.37,2013-02-15 19:25:00,
2013-02-15 14:30:00,57.3,35.6,30.05,West,259,21.0,21.0,44,0.00,CLR,,0.00,645.0,WeatherDisplay:10.37,2013-02-15 19:30:00,
2013-02-15 14:35:00,57.1,35.4,30.05,West,272,19.6,19.6,44,0.00,CLR,,0.00,659.0,WeatherDisplay:10.37,2013-02-15 19:35:00,
2013-02-15 14:40:00,57.4,36.8,30.05,West,279,20.7,20.7,46,0.00,CLR,,0.00,701.0,WeatherDisplay:10.37,2013-02-15 19:40:00,
2013-02-15 14:45:00,57.9,39.9,30.05,WSW,249,11.5,11.5,51,0.00,CLR,,0.00,684.0,WeatherDisplay:10.37,2013-02-15 19:45:00,
2013-02-15 14:50:00,58.0,37.3,30.05,West,277,17.0,17.0,46,0.00,CLR,,0.00,654.0,WeatherDisplay:10.37,2013-02-15 19:50:00,
2013-02-15 14:55:00,57.6,35.8,30.05,WSW,246,19.6,19.6,44,0.00,CLR,,0.00,621.0,WeatherDisplay:10.37,2013-02-15 19:55:00,
2013-02-15 15:00:00,57.3,36.1,30.04,West,273,20.7,20.7,45,0.00,CLR,,0.00,643.0,WeatherDisplay:10.37,2013-02-15 20:00:00,
2013-02-15 15:05:00,57.5,36.9,30.04,SW,229,18.4,18.4,46,0.00,CLR,,0.00,668.0,WeatherDisplay:10.37,2013-02-15 20:05:00,
2013-02-15 15:10:00,56.4,36.4,30.04,West,271,20.7,20.7,47,0.00,BKN,,0.00,155.0,WeatherDisplay:10.37,2013-02-15 20:10:00,
2013-02-15 15:15:00,55.3,34.9,30.04,WNW,292,18.4,18.4,46,0.00,BKN,,0.00,190.0,WeatherDisplay:10.37,2013-02-15 20:15:00,
2013-02-15 15:20:00,55.0,35.7,30.04,WSW,257,20.7,20.7,48,0.00,BKN,,0.00,176.0,WeatherDisplay:10.37,2013-02-15 20:20:00,
2013-02-15 15:25:00,55.3,37.0,30.04,WNW,282,19.6,19.6,50,0.00,BKN,,0.00,218.0,WeatherDisplay:10.37,2013-02-15 20:25:00,
2013-02-15 15:30:00,55.4,35.5,30.04,West,275,15.0,15.0,47,0.00,BKN,,0.00,148.0,WeatherDisplay:10.37,2013-02-15 20:30:00,
2013-02-15 15:35:00,55.0,36.7,30.04,WNW,282,17.3,17.3,50,0.00,BKN,,0.00,113.0,WeatherDisplay:10.37,2013-02-15 20:35:00,
2013-02-15 15:40:00,54.9,36.1,30.04,West,281,19.6,19.6,49,0.00,BKN,,0.00,142.0,WeatherDisplay:10.37,2013-02-15 20:40:00,
2013-02-15 15:45:00,55.7,36.3,30.03,West,275,16.1,16.1,48,0.00,BKN,,0.00,188.0,WeatherDisplay:10.37,2013-02-15 20:45:00,
2013-02-15 15:50:00,56.0,37.6,30.03,WNW,292,10.4,10.4,50,0.00,CLR,,0.00,487.0,WeatherDisplay:10.37,2013-02-15 20:50:00,
2013-02-15 15:55:00,56.8,37.8,30.03,West,269,16.1,16.1,49,0.00,CLR,,0.00,490.0,WeatherDisplay:10.37,2013-02-15 20:55:00,
2013-02-15 16:00:00,56.4,36.9,30.03,WNW,295,16.1,16.1,48,0.00,BKN,,0.00,216.0,WeatherDisplay:10.37,2013-02-15 21:00:00,
2013-02-15 16:05:00,55.7,36.8,30.03,NW,305,15.0,15.0,49,0.00,BKN,,0.00,102.0,WeatherDisplay:10.37,2013-02-15 21:05:00,
2013-02-15 16:10:00,55.1,35.7,30.03,WNW,296,12.7,12.7,48,0.00,BKN,,0.00,111.0,WeatherDisplay:10.37,2013-02-15 21:10:00,
2013-02-15 16:15:00,54.8,36.5,30.03,WSW,248,18.4,18.4,50,0.00,BKN,,0.00,86.0,WeatherDisplay:10.37,2013-02-15 21:15:00,
2013-02-15 16:20:00,54.5,36.7,30.03,WNW,283,19.6,19.6,51,0.00,BKN,,0.00,63.0,WeatherDisplay:10.37,2013-02-15 21:20:00,
2013-02-15 16:25:00,54.3,36.5,30.03,West,259,21.0,21.0,51,0.00,BKN,,0.00,62.0,WeatherDisplay:10.37,2013-02-15 21:25:00,
2013-02-15 16:30:00,54.1,35.9,30.03,West,265,19.6,19.6,50,0.00,BKN,,0.00,65.0,WeatherDisplay:10.37,2013-02-15 21:30:00,
2013-02-15 16:35:00,54.1,36.4,30.04,WNW,283,13.8,13.8,51,0.00,BKN,,0.00,56.0,WeatherDisplay:10.37,2013-02-15 21:35:00,
2013-02-15 16:40:00,54.0,36.3,30.04,WNW,286,13.8,13.8,51,0.00,BKN,,0.00,60.0,WeatherDisplay:10.37,2013-02-15 21:40:00,
2013-02-15 16:45:00,53.9,37.1,30.04,West,262,11.5,11.5,53,0.00,BKN,,0.00,95.0,WeatherDisplay:10.37,2013-02-15 21:45:00,
2013-02-15 16:50:00,53.8,37.5,30.04,West,272,10.4,10.4,54,0.00,BKN,,0.00,77.0,WeatherDisplay:10.37,2013-02-15 21:50:00,
2013-02-15 16:55:00,53.7,37.9,30.04,NW,309,8.0,8.0,55,0.00,BKN,,0.00,63.0,WeatherDisplay:10.37,2013-02-15 21:55:00,
2013-02-15 17:00:00,53.6,37.8,30.04,NW,314,11.5,11.5,55,0.00,BKN,,0.00,148.0,WeatherDisplay:10.37,2013-02-15 22:00:00,
2013-02-15 17:05:00,53.8,38.9,30.03,NW,313,12.0,12.0,57,0.00,BKN,,0.00,144.0,WeatherDisplay:10.37,2013-02-15 22:05:00,
2013-02-15 17:10:00,53.7,37.9,30.03,WNW,298,9.2,9.2,55,0.00,BKN,,0.00,102.0,WeatherDisplay:10.37,2013-02-15 22:10:00,
2013-02-15 17:15:00,53.5,37.7,30.03,NW,305,6.9,6.9,55,0.00,BKN,,0.00,72.0,WeatherDisplay:10.37,2013-02-15 22:15:00,
2013-02-15 17:20:00,53.2,38.4,30.04,WNW,300,10.4,10.4,57,0.00,BKN,,0.00,39.0,WeatherDisplay:10.37,2013-02-15 22:20:00,
2013-02-15 17:25:00,52.9,38.1,30.04,NW,306,10.4,10.4,57,0.00,CLR,,0.00,26.0,WeatherDisplay:10.37,2013-02-15 22:25:00,
2013-02-15 17:30:00,52.7,38.3,30.04,WNW,290,9.2,9.2,58,0.00,CLR,,0.00,12.0,WeatherDisplay:10.37,2013-02-15 22:30:00,
2013-02-15 17:35:00,52.6,38.7,30.04,WNW,293,6.9,6.9,59,0.00,CLR,,0.00,9.0,WeatherDisplay:10.37,2013-02-15 22:35:00,
2013-02-15 17:40:00,52.3,39.2,30.04,NNW,337,17.3,17.3,61,0.00,CLR,,0.00,35.0,WeatherDisplay:10.37,2013-02-15 22:40:00,
2013-02-15 17:45:00,51.5,39.7,30.04,NW,317,15.0,15.0,64,0.00,CLR,,0.00,25.0,WeatherDisplay:10.37,2013-02-15 22:45:00,
2013-02-15 17:50:00,50.9,39.5,30.04,NW,310,11.5,11.5,65,0.00,CLR,,0.00,14.0,WeatherDisplay:10.37,2013-02-15 22:50:00,
2013-02-15 17:55:00,50.5,39.9,30.04,NW,317,4.6,4.6,67,0.00,CLR,,0.00,5.0,WeatherDisplay:10.37,2013-02-15 22:55:00,
2013-02-15 18:00:00,50.2,40.4,30.05,NNW,338,11.5,11.5,69,0.00,CLR,,0.00,0.0,WeatherDisplay:10.37,2013-02-15 23:00:00,
2013-02-15 18:05:00,49.9,41.2,30.06,NW,319,15.0,15.0,72,0.00,CLR,,0.00,0.0,WeatherDisplay:10.37,2013-02-15 23:05:00,
2013-02-15 18:10:00,48.8,41.9,30.06,NNW,346,15.0,15.0,77,0.00,CLR,,0.00,0.0,WeatherDisplay:10.37,2013-02-15 23:10:00,
2013-02-15 18:15:00,47.9,41.7,30.06,NNW,344,10.4,10.4,79,0.00,CLR,,0.00,5.0,WeatherDisplay:10.37,2013-02-15 23:15:00,
2013-02-15 18:20:00,47.3,41.8,30.06,North,355,6.9,6.9,81,0.00,CLR,,0.00,0.0,WeatherDisplay:10.37,2013-02-15 23:20:00,
2013-02-15 18:25:00,46.9,41.7,30.05,North,355,4.0,4.0,82,0.00,CLR,,0.00,0.0,WeatherDisplay:10.37,2013-02-15 23:25:00,
2013-02-15 18:30:00,46.6,41.7,30.05,North,355,3.5,3.5,83,0.00,CLR,,0.00,0.0,WeatherDisplay:10.37,2013-02-15 23:30:00,
2013-02-15 18:35:00,46.3,41.7,30.05,North,355,1.1,0.0,84,0.00,CLR,,0.00,0.0,WeatherDisplay:10.37,2013-02-15 23:35:00,
2013-02-15 18:40:00,46.1,41.5,30.06,North,355,0.0,0.0,84,0.00,CLR,,0.00,0.0,WeatherDisplay:10.37,2013-02-15 23:40:00,
2013-02-15 18:45:00,45.9,41.6,30.06,North,355,0.0,0.0,85,0.00,CLR,,0.00,0.0,WeatherDisplay:10.37,2013-02-15 23:45:00,
2013-02-15 18:50:00,45.8,41.9,30.06,North,355,0.0,0.0,86,0.00,CLR,,0.00,0.0,WeatherDisplay:10.37,2013-02-15 23:50:00,
2013-02-15 18:55:00,45.6,42.0,30.06,NE,40,11.5,11.5,87,0.00,CLR,,0.00,0.0,WeatherDisplay:10.37,2013-02-15 23:55:00,
2013-02-15 19:00:00,45.3,41.1,30.06,NE,41,10.4,10.4,85,0.00,CLR,,0.00,0.0,WeatherDisplay:10.37,2013-02-16 00:00:00,
2013-02-15 19:05:00,45.2,40.7,30.06,NE,56,11.5,11.5,84,0.00,CLR,,0.00,0.0,WeatherDisplay:10.37,2013-02-16 00:05:00,
2013-02-15 19:10:00,45.1,40.6,30.06,NE,43,10.4,10.4,84,0.00,CLR,,0.00,0.0,WeatherDisplay:10.37,2013-02-16 00:10:00,
2013-02-15 19:15:00,44.9,40.4,30.06,NE,42,3.5,3.5,84,0.00,CLR,,0.00,0.0,WeatherDisplay:10.37,2013-02-16 00:15:00,
2013-02-15 19:20:00,44.8,40.6,30.06,NE,42,10.4,10.4,85,0.00,CLR,,0.00,0.0,WeatherDisplay:10.37,2013-02-16 00:20:00,
2013-02-15 19:25:00,44.6,40.1,30.06,NE,43,9.2,9.2,84,0.00,CLR,,0.00,0.0,WeatherDisplay:10.37,2013-02-16 00:25:00,
2013-02-15 19:30:00,44.5,40.0,30.06,NE,43,4.0,4.0,84,0.00,CLR,,0.00,0.0,WeatherDisplay:10.37,2013-02-16 00:30:00,
2013-02-15 19:35:00,44.3,39.8,30.07,NE,43,4.6,4.6,84,0.00,CLR,,0.00,0.0,WeatherDisplay:10.37,2013-02-16 00:35:00,
2013-02-15 19:40:00,44.1,39.6,30.07,NE,43,2.3,2.3,84,0.00,CLR,,0.00,0.0,WeatherDisplay:10.37,2013-02-16 00:40:00,
2013-02-15 19:45:00,43.8,39.0,30.07,NNW,333,4.6,4.6,83,0.00,CLR,,0.00,0.0,WeatherDisplay:10.37,2013-02-16 00:45:00,
2013-02-15 19:50:00,43.7,38.9,30.07,North,9,6.9,6.9,83,0.00,CLR,,0.00,0.0,WeatherDisplay:10.37,2013-02-16 00:50:00,
2013-02-15 19:55:00,43.6,38.5,30.07,North,351,15.0,15.0,82,0.00,CLR,,0.00,0.0,WeatherDisplay:10.37,2013-02-16 00:55:00,
2013-02-15 20:00:00,43.6,37.8,30.07,NNW,343,11.5,11.5,80,0.00,CLR,,0.00,0.0,WeatherDisplay:10.37,2013-02-16 01:00:00,
2013-02-15 20:05:00,43.5,37.4,30.08,NNW,346,15.0,15.0,79,0.00,CLR,,0.00,0.0,WeatherDisplay:10.37,2013-02-16 01:05:00,
2013-02-15 20:10:00,43.4,37.3,30.07,North,11,15.0,15.0,79,0.00,CLR,,0.00,0.0,WeatherDisplay:10.37,2013-02-16 01:10:00,
2013-02-15 20:19:00,43.3,37.2,30.07,NNE,32,16.1,16.1,79,0.00,CLR,,0.00,0.0,WeatherDisplay:10.37,2013-02-16 01:19:00,
2013-02-15 20:20:00,38.8,29.1,30.03,North,6,7.0,9.0,68,0.00,CLR,,0.00,0.0,WeatherDisplay:10.37,2013-02-16 01:20:00,
2013-02-15 20:24:00,43.2,37.1,30.07,NNW,347,11.5,11.5,79,0.00,CLR,,0.00,0.0,WeatherDisplay:10.37,2013-02-16 01:24:00,
2013-02-15 20:29:00,43.1,37.0,30.08,North,355,15.0,15.0,79,0.00,CLR,,0.00,0.0,WeatherDisplay:10.37,2013-02-16 01:29:00,
2013-02-15 20:30:00,38.8,29.5,30.03,North,2,7.0,14.0,69,0.00,CLR,,0.00,0.0,WeatherDisplay:10.37,2013-02-16 01:30:00,
2013-02-15 20:34:00,42.9,36.8,30.07,ENE,67,8.1,8.1,79,0.00,CLR,,0.00,0.0,WeatherDisplay:10.37,2013-02-16 01:34:00,
2013-02-15 20:39:00,42.7,36.6,30.07,NNE,33,16.1,16.1,79,0.00,CLR,,0.00,0.0,WeatherDisplay:10.37,2013-02-16 01:39:00,
2013-02-15 20:40:00,38.7,29.8,30.03,NNE,16,2.0,13.0,70,0.00,CLR,,0.00,0.0,WeatherDisplay:10.37,2013-02-16 01:40:00,
2013-02-15 20:44:00,42.4,36.7,30.07,ENE,78,9.2,9.2,80,0.00,CLR,,0.00,0.0,WeatherDisplay:10.37,2013-02-16 01:44:00,
2013-02-15 20:50:00,38.5,29.9,30.02,North,357,5.0,11.0,71,0.00,CLR,,0.00,0.0,WeatherDisplay:10.37,2013-02-16 01:50:00,
2013-02-15 21:00:00,38.5,30.3,30.02,NNE,18,5.0,13.0,72,0.00,CLR,,0.00,0.0,WeatherDisplay:10.37,2013-02-16 02:00:00,
2013-02-15 21:10:00,38.6,30.0,30.02,North,349,6.0,11.0,71,0.00,CLR,,0.00,0.0,WeatherDisplay:10.37,2013-02-16 02:10:00,
2013-02-15 21:20:00,38.8,29.8,30.01,North,5,12.0,20.0,70,0.00,CLR,,0.00,0.0,WeatherDisplay:10.37,2013-02-16 02:20:00,
2013-02-15 21:30:00,38.8,28.8,30.01,North,3,9.0,19.0,67,0.00,CLR,,0.00,0.0,WeatherDisplay:10.37,2013-02-16 02:30:00,
2013-02-15 21:40:00,39.0,28.2,30.00,NNE,17,6.0,19.0,65,0.00,CLR,,0.00,0.0,WeatherDisplay:10.37,2013-02-16 02:40:00,
2013-02-15 21:50:00,38.9,27.8,30.00,NNE,12,6.0,13.0,64,0.00,CLR,,0.00,0.0,WeatherDisplay:10.37,2013-02-16 02:50:00,
2013-02-15 22:00:00,38.6,27.8,30.00,North,0,3.0,9.0,65,0.00,CLR,,0.00,0.0,WeatherDisplay:10.37,2013-02-16 03:00:00,
2013-02-15 22:10:00,38.1,28.1,30.00,NNE,24,5.0,10.0,67,0.00,CLR,,0.00,0.0,WeatherDisplay:10.37,2013-02-16 03:10:00,
2013-02-15 22:20:00,37.8,27.8,30.00,NNE,22,3.0,7.0,67,0.00,CLR,,0.00,0.0,WeatherDisplay:10.37,2013-02-16 03:20:00,
2013-02-15 22:30:00,37.7,27.7,29.99,North,4,3.0,6.0,67,0.00,CLR,,0.00,0.0,WeatherDisplay:10.37,2013-02-16 03:30:00,
2013-02-15 22:40:00,37.3,27.7,29.99,North,0,6.0,9.0,68,0.00,CLR,,0.00,0.0,WeatherDisplay:10.37,2013-02-16 03:40:00,
2013-02-15 22:50:00,37.1,27.9,29.99,North,357,6.0,11.0,69,0.00,CLR,,0.00,0.0,WeatherDisplay:10.37,2013-02-16 03:50:00,
2013-02-15 23:00:00,36.8,27.6,29.99,NNW,341,6.0,11.0,69,0.00,CLR,,0.00,0.0,WeatherDisplay:10.37,2013-02-16 04:00:00,
2013-02-15 23:10:00,36.5,28.0,29.98,NNW,343,5.0,8.0,71,0.00,CLR,,0.00,0.0,WeatherDisplay:10.37,2013-02-16 04:10:00,
2013-02-15 23:20:00,36.1,27.6,29.98,NNE,30,5.0,9.0,71,0.00,CLR,,0.00,0.0,WeatherDisplay:10.37,2013-02-16 04:20:00,
2013-02-15 23:30:00,35.9,27.7,29.99,North,3,6.0,10.0,72,0.00,CLR,,0.00,0.0,WeatherDisplay:10.37,2013-02-16 04:30:00,
2013-02-15 23:40:00,35.5,28.0,29.99,NNE,25,6.0,10.0,74,0.00,CLR,,0.00,0.0,WeatherDisplay:10.37,2013-02-16 04:40:00,
2013-02-15 23:50:00,35.6,27.8,29.99,NE,38,3.0,8.0,73,0.00,CLR,,0.00,0.0,WeatherDisplay:10.37,2013-02-16 04:50:00,